RYR297 EDDK-LEIB

Flight info

Callsign RYR297
Flight time N/A
Altitude 35000
Route NVO2R NVO Y868 NAVAK Z283 SOPOK DCT ROUSY DCT GTQ DCT POGOL DCT LASAT DCT MOROK DCT GILIR DCT GEVEA DCT INCUS DCT BALSI DCT RETNO DCT TUPOX DCT MTG DCT DIVKO DCT VATIR/N0460F310 DCT PIVUS DCT SULID DCT DIMIB DCT POS
Aircraft B38M/M-SDE1FGHILORVWXY/HB1

Departure

Time 2026-04-25 17:22
Airport Cologne Bonn Airport (EDDK)

Arrival

Time N/A
Airport Ibiza Airport (LEIB)
Time Latitude Longitude Altitude Speed Heading
2026-04-25 16:47 50.87802 7.12425 234 ft 0 kts 288°
2026-04-25 17:09 50.87795 7.12459 236 ft 4 kts 288°
2026-04-25 17:09 50.87788 7.12493 238 ft 2 kts 288°
2026-04-25 17:10 50.87777 7.12528 237 ft 4 kts 317°
2026-04-25 17:10 50.87755 7.12542 236 ft 4 kts
2026-04-25 17:10 50.87731 7.12532 237 ft 4 kts 18°
2026-04-25 17:10 50.87709 7.12520 236 ft 1 kts 18°
2026-04-25 17:11 50.87708 7.12520 236 ft 0 kts 18°
2026-04-25 17:13 50.87709 7.12520 236 ft 0 kts 18°
2026-04-25 17:14 50.87718 7.12525 238 ft 3 kts 18°
2026-04-25 17:14 50.87755 7.12565 238 ft 9 kts 58°
2026-04-25 17:14 50.87769 7.12666 235 ft 11 kts 92°
2026-04-25 17:14 50.87719 7.12771 235 ft 13 kts 138°
2026-04-25 17:15 50.87645 7.12875 235 ft 15 kts 138°
2026-04-25 17:15 50.87563 7.12994 235 ft 17 kts 137°
2026-04-25 17:15 50.87474 7.13127 235 ft 18 kts 137°
2026-04-25 17:15 50.87376 7.13267 235 ft 20 kts 137°
2026-04-25 17:16 50.87268 7.13421 236 ft 21 kts 137°
2026-04-25 17:16 50.87162 7.13574 240 ft 21 kts 138°
2026-04-25 17:16 50.87045 7.13747 244 ft 24 kts 137°
2026-04-25 17:16 50.86937 7.13901 251 ft 19 kts 138°
2026-04-25 17:17 50.86848 7.14031 257 ft 17 kts 137°
2026-04-25 17:17 50.86749 7.14134 257 ft 18 kts 161°
2026-04-25 17:17 50.86659 7.14244 263 ft 16 kts 137°
2026-04-25 17:17 50.86562 7.14386 264 ft 26 kts 137°
2026-04-25 17:18 50.86421 7.14590 273 ft 27 kts 137°
2026-04-25 17:18 50.86285 7.14788 281 ft 26 kts 137°
2026-04-25 17:18 50.86158 7.14971 288 ft 24 kts 137°
2026-04-25 17:18 50.86074 7.15093 293 ft 9 kts 137°
2026-04-25 17:19 50.86026 7.15163 294 ft 11 kts 137°
2026-04-25 17:19 50.85927 7.15305 298 ft 28 kts 137°
2026-04-25 17:19 50.85753 7.15557 303 ft 40 kts 137°
2026-04-25 17:19 50.85522 7.15890 310 ft 38 kts 138°
2026-04-25 17:20 50.85496 7.16022 312 ft 23 kts 56°
2026-04-25 17:20 50.85640 7.16269 312 ft 23 kts 47°
2026-04-25 17:20 50.85676 7.16324 310 ft 4 kts 19°
2026-04-25 17:20 50.85702 7.16306 311 ft 0 kts 319°
2026-04-25 17:21 50.85703 7.16304 311 ft 0 kts 319°
2026-04-25 17:21 50.85737 7.16256 310 ft 29 kts 317°
2026-04-25 17:21 50.86103 7.15725 302 ft 114 kts 317°
2026-04-25 17:21 50.86870 7.14614 358 ft 177 kts 317°
2026-04-25 17:22 50.87850 7.13181 1091 ft 202 kts 317°
2026-04-25 17:22 50.88192 7.12676 1580 ft 197 kts 316°
2026-04-25 17:22 50.89996 7.09937 3081 ft 224 kts 313°
2026-04-25 17:22 50.90842 7.07967 4518 ft 210 kts 295°
2026-04-25 17:23 50.91128 7.05763 5726 ft 210 kts 273°
2026-04-25 17:23 50.90830 7.03433 6586 ft 224 kts 255°
2026-04-25 17:23 50.90294 7.01027 7219 ft 241 kts 255°
2026-04-25 17:23 50.89735 6.98464 7783 ft 261 kts 255°
2026-04-25 17:24 50.89115 6.95593 8420 ft 278 kts 255°
2026-04-25 17:24 50.88492 6.92680 9422 ft 278 kts 257°
2026-04-25 17:24 50.88018 6.89692 10323 ft 284 kts 255°
2026-04-25 17:24 50.86956 6.86956 10783 ft 311 kts 229°
2026-04-25 17:25 50.85324 6.84542 11228 ft 331 kts 228°
2026-04-25 17:25 50.83666 6.81863 11666 ft 347 kts 230°
2026-04-25 17:25 50.81699 6.79512 12253 ft 363 kts 206°
2026-04-25 17:25 50.79222 6.78657 13038 ft 371 kts 183°
2026-04-25 17:26 50.76627 6.78646 13972 ft 372 kts 184°
2026-04-25 17:26 50.74010 6.78581 14566 ft 380 kts 184°
2026-04-25 17:26 50.71345 6.78491 15232 ft 383 kts 185°
2026-04-25 17:26 50.68698 6.78391 15882 ft 388 kts 185°
2026-04-25 17:27 50.65983 6.78278 16561 ft 390 kts 185°
2026-04-25 17:27 50.63254 6.78166 17239 ft 394 kts 184°
2026-04-25 17:27 50.60497 6.78052 17858 ft 398 kts 184°
2026-04-25 17:27 50.59558 6.78013 18075 ft 399 kts 184°
2026-04-25 17:28 50.54898 6.77820 19028 ft 405 kts 185°
2026-04-25 17:28 50.52099 6.77705 19548 ft 409 kts 185°
2026-04-25 17:28 50.49231 6.77586 20061 ft 413 kts 185°
2026-04-25 17:28 50.46345 6.77467 20570 ft 417 kts 185°
2026-04-25 17:29 50.43432 6.77346 21079 ft 420 kts 185°
2026-04-25 17:29 50.40497 6.77227 21600 ft 423 kts 185°
2026-04-25 17:29 50.37535 6.77107 22072 ft 427 kts 185°
2026-04-25 17:29 50.35553 6.77025 22394 ft 430 kts 185°
2026-04-25 17:30 50.31565 6.76862 23023 ft 435 kts 185°
2026-04-25 17:30 50.28514 6.76738 23500 ft 439 kts 185°
2026-04-25 17:30 50.25441 6.76613 23915 ft 442 kts 185°
2026-04-25 17:30 50.22354 6.76486 24335 ft 445 kts 185°
2026-04-25 17:31 50.19245 6.76361 24728 ft 448 kts 185°
2026-04-25 17:31 50.16154 6.76236 25128 ft 450 kts 185°
2026-04-25 17:31 50.13010 6.76110 25553 ft 452 kts 185°
2026-04-25 17:31 50.09849 6.75982 25939 ft 454 kts 185°
2026-04-25 17:32 50.06681 6.75854 26343 ft 457 kts 185°
2026-04-25 17:32 50.03488 6.75726 26727 ft 459 kts 185°
2026-04-25 17:32 50.00327 6.75598 27115 ft 461 kts 185°
2026-04-25 17:32 49.97109 6.75469 27482 ft 463 kts 185°
2026-04-25 17:33 49.93876 6.75340 27863 ft 465 kts 185°
2026-04-25 17:33 49.90627 6.75211 28213 ft 467 kts 185°
2026-04-25 17:33 49.88468 6.75124 28453 ft 469 kts 185°
2026-04-25 17:33 49.85198 6.74992 28813 ft 471 kts 185°
2026-04-25 17:34 49.81919 6.74863 29194 ft 472 kts 185°
2026-04-25 17:34 49.78611 6.74733 29505 ft 475 kts 185°
2026-04-25 17:34 49.75297 6.74601 29852 ft 477 kts 185°
2026-04-25 17:34 49.71964 6.74468 30195 ft 479 kts 185°
2026-04-25 17:35 49.68619 6.74336 30478 ft 481 kts 185°
2026-04-25 17:35 49.65313 6.74205 30799 ft 482 kts 185°
2026-04-25 17:35 49.61965 6.74074 31206 ft 480 kts 185°
2026-04-25 17:35 49.58619 6.73945 31640 ft 479 kts 185°
2026-04-25 17:36 49.55291 6.73815 32063 ft 477 kts 185°
2026-04-25 17:36 49.51970 6.73685 32362 ft 478 kts 185°
2026-04-25 17:36 49.48643 6.73556 32746 ft 477 kts 185°
2026-04-25 17:36 49.45324 6.73426 33148 ft 475 kts 185°
2026-04-25 17:37 49.42024 6.73298 33565 ft 473 kts 185°
2026-04-25 17:37 49.38772 6.73173 33964 ft 472 kts 185°
2026-04-25 17:37 49.35490 6.73045 34328 ft 471 kts 185°
2026-04-25 17:37 49.32209 6.72917 34624 ft 470 kts 185°
2026-04-25 17:38 49.28930 6.72789 34907 ft 470 kts 185°
2026-04-25 17:38 49.26769 6.72705 35074 ft 470 kts 185°
2026-04-25 17:38 49.19105 6.72406 35111 ft 476 kts 185°
2026-04-25 17:39 49.12464 6.72149 35116 ft 476 kts 185°
2026-04-25 17:39 49.05836 6.71893 35113 ft 476 kts 185°
2026-04-25 17:40 48.99249 6.71639 35115 ft 476 kts 185°
2026-04-25 17:40 48.92630 6.71378 35120 ft 476 kts 185°
2026-04-25 17:41 48.85999 6.71118 35107 ft 475 kts 185°
2026-04-25 17:41 48.79372 6.70859 35121 ft 475 kts 185°
2026-04-25 17:42 48.72800 6.70603 35117 ft 475 kts 185°
2026-04-25 17:42 48.66186 6.70345 35123 ft 475 kts 185°
2026-04-25 17:43 48.59564 6.70088 35124 ft 475 kts 185°
2026-04-25 17:43 48.52988 6.69834 35125 ft 475 kts 185°
2026-04-25 17:44 48.46376 6.69579 35122 ft 475 kts 185°
2026-04-25 17:44 48.39758 6.69324 35119 ft 475 kts 185°
2026-04-25 17:45 48.34261 6.69112 35122 ft 475 kts 185°
2026-04-25 17:45 48.26534 6.68815 35121 ft 475 kts 185°
2026-04-25 17:46 48.19960 6.68563 35115 ft 474 kts 185°
2026-04-25 17:46 48.13345 6.68310 35122 ft 474 kts 185°
2026-04-25 17:47 48.06742 6.68060 35110 ft 474 kts 185°
2026-04-25 17:47 48.00140 6.67809 35117 ft 474 kts 185°
2026-04-25 17:48 47.90272 6.67435 35114 ft 474 kts 185°
2026-04-25 17:49 47.83676 6.67187 35112 ft 473 kts 185°
2026-04-25 17:49 47.77120 6.66940 35110 ft 474 kts 185°
2026-04-25 17:50 47.70497 6.66692 35100 ft 474 kts 185°
2026-04-25 17:50 47.63919 6.66446 35100 ft 474 kts 185°
2026-04-25 17:51 47.57307 6.66199 35098 ft 474 kts 184°
2026-04-25 17:51 47.50732 6.65955 35103 ft 474 kts 184°
2026-04-25 17:52 47.44130 6.65693 35103 ft 473 kts 187°
2026-04-25 17:52 47.38047 6.62753 35094 ft 458 kts 218°
2026-04-25 17:53 47.33007 6.56973 35100 ft 458 kts 222°
2026-04-25 17:53 47.28118 6.51006 35098 ft 458 kts 223°
2026-04-25 17:54 47.23241 6.44941 35102 ft 458 kts 224°
2026-04-25 17:54 47.18377 6.38872 35095 ft 457 kts 224°
2026-04-25 17:55 47.13542 6.32853 35104 ft 457 kts 223°
2026-04-25 17:55 47.08669 6.26843 35101 ft 458 kts 220°
2026-04-25 17:55 47.05898 6.24498 35081 ft 463 kts 203°
2026-04-25 17:56 47.02801 6.23379 35121 ft 469 kts 190°
2026-04-25 17:56 46.96283 6.22255 35096 ft 469 kts 189°
2026-04-25 17:57 46.89815 6.21187 35105 ft 470 kts 189°
2026-04-25 17:57 46.83317 6.20121 35107 ft 470 kts 189°
2026-04-25 17:58 46.76815 6.19057 35094 ft 469 kts 189°
2026-04-25 17:58 46.70324 6.17997 35102 ft 469 kts 189°
2026-04-25 17:59 46.63836 6.16940 35101 ft 469 kts 189°
2026-04-25 17:59 46.57392 6.15893 35093 ft 469 kts 189°
2026-04-25 18:00 46.50882 6.14837 35096 ft 469 kts 189°
2026-04-25 18:00 46.44429 6.13793 35094 ft 469 kts 189°
2026-04-25 18:01 46.37926 6.12744 35068 ft 468 kts 189°
2026-04-25 18:01 46.31481 6.11706 35077 ft 468 kts 189°
2026-04-25 18:02 46.25002 6.10666 35075 ft 468 kts 189°
2026-04-25 18:02 46.18518 6.09627 35075 ft 467 kts 189°
2026-04-25 18:03 46.12079 6.08598 35078 ft 467 kts 189°
2026-04-25 18:03 46.05607 6.07566 35076 ft 467 kts 189°
2026-04-25 18:04 45.99182 6.06544 35069 ft 467 kts 189°
2026-04-25 18:04 45.92711 6.05516 35071 ft 466 kts 189°
2026-04-25 18:05 45.86253 6.04481 35079 ft 466 kts 191°
2026-04-25 18:05 45.79886 6.03048 35070 ft 466 kts 191°
2026-04-25 18:06 45.73466 6.01649 35076 ft 465 kts 191°
2026-04-25 18:06 45.67059 6.00257 35045 ft 465 kts 191°
2026-04-25 18:07 45.60702 5.98878 35041 ft 465 kts 191°
2026-04-25 18:07 45.54307 5.97494 35049 ft 465 kts 191°
2026-04-25 18:08 45.47903 5.96061 35052 ft 463 kts 195°
2026-04-25 18:08 45.41656 5.94021 35055 ft 463 kts 195°
2026-04-25 18:09 45.35338 5.92053 35089 ft 465 kts 195°
2026-04-25 18:09 45.29018 5.90093 35067 ft 464 kts 195°
2026-04-25 18:10 45.24835 5.88798 35085 ft 464 kts 195°
2026-04-25 18:10 45.16425 5.86200 35081 ft 463 kts 195°
2026-04-25 18:11 45.10143 5.84265 35083 ft 464 kts 195°
2026-04-25 18:11 45.03823 5.82322 35091 ft 463 kts 195°
2026-04-25 18:12 44.97515 5.80388 35074 ft 463 kts 195°
2026-04-25 18:12 44.91254 5.78472 35083 ft 463 kts 195°
2026-04-25 18:13 44.84943 5.76545 35081 ft 463 kts 195°
2026-04-25 18:13 44.78627 5.74621 35072 ft 463 kts 195°
2026-04-25 18:14 44.69204 5.71758 35062 ft 463 kts 195°
2026-04-25 18:14 44.62943 5.69861 35072 ft 462 kts 195°
2026-04-25 18:15 44.56624 5.67950 35060 ft 462 kts 195°
2026-04-25 18:15 44.50363 5.66062 35051 ft 462 kts 195°
2026-04-25 18:16 44.44061 5.64164 35054 ft 462 kts 195°
2026-04-25 18:17 44.34857 5.60529 35042 ft 458 kts 204°
2026-04-25 18:17 44.28884 5.57327 35036 ft 459 kts 204°
2026-04-25 18:18 44.22933 5.54086 35042 ft 459 kts 204°
2026-04-25 18:18 44.17017 5.50856 35040 ft 459 kts 204°
2026-04-25 18:19 44.11062 5.47613 35040 ft 459 kts 204°
2026-04-25 18:19 44.05134 5.44392 35043 ft 460 kts 204°
2026-04-25 18:20 43.99161 5.41153 35041 ft 460 kts 204°
2026-04-25 18:20 43.93190 5.37918 35044 ft 460 kts 204°
2026-04-25 18:21 43.87216 5.34688 35046 ft 461 kts 204°
2026-04-25 18:21 43.81277 5.31485 35049 ft 460 kts 204°
2026-04-25 18:22 43.75298 5.28266 35046 ft 460 kts 204°
2026-04-25 18:22 43.69358 5.25075 35043 ft 460 kts 204°
2026-04-25 18:23 43.63377 5.21869 35048 ft 461 kts 204°
2026-04-25 18:23 43.58400 5.19206 35072 ft 461 kts 204°
2026-04-25 18:24 43.52414 5.16010 35076 ft 461 kts 204°
2026-04-25 18:24 43.45452 5.12301 35076 ft 461 kts 204°
2026-04-25 18:25 43.40469 5.09652 35073 ft 461 kts 204°
2026-04-25 18:25 43.37640 5.07644 35066 ft 455 kts 218°
2026-04-25 18:25 43.35066 5.05108 35054 ft 457 kts 216°
2026-04-25 18:26 43.29760 5.00268 35071 ft 458 kts 217°
2026-04-25 18:26 43.24492 4.95351 35068 ft 458 kts 217°
2026-04-25 18:27 43.19257 4.90438 35072 ft 457 kts 217°
2026-04-25 18:27 43.13999 4.85514 35062 ft 457 kts 217°
2026-04-25 18:28 43.08734 4.80591 35063 ft 458 kts 217°
2026-04-25 18:28 43.03332 4.76041 35087 ft 460 kts 211°
2026-04-25 18:29 42.94887 4.69739 35077 ft 460 kts 212°
2026-04-25 18:30 42.83713 4.61265 35075 ft 461 kts 211°
2026-04-25 18:30 42.78118 4.57033 35069 ft 461 kts 212°
2026-04-25 18:31 42.72493 4.52788 35072 ft 461 kts 211°
2026-04-25 18:31 42.66919 4.48591 35079 ft 461 kts 211°
2026-04-25 18:32 42.61300 4.44368 35080 ft 461 kts 211°
2026-04-25 18:32 42.55679 4.40153 35079 ft 461 kts 211°
2026-04-25 18:33 42.50084 4.35964 35070 ft 462 kts 211°
2026-04-25 18:33 42.44450 4.31754 35088 ft 462 kts 211°
2026-04-25 18:34 42.38836 4.27570 35093 ft 462 kts 211°
2026-04-25 18:34 42.33202 4.23380 35088 ft 462 kts 211°
2026-04-25 18:35 42.27552 4.19186 35102 ft 463 kts 211°
2026-04-25 18:35 42.21936 4.15025 35090 ft 463 kts 211°
2026-04-25 18:36 42.16278 4.10848 35101 ft 463 kts 211°
2026-04-25 18:36 42.10612 4.06691 35097 ft 463 kts 211°
2026-04-25 18:37 42.04955 4.02542 35101 ft 464 kts 211°
2026-04-25 18:37 41.99307 3.98412 35106 ft 464 kts 211°
2026-04-25 18:38 41.93618 3.94259 35107 ft 464 kts 211°
2026-04-25 18:38 41.87860 3.90379 35103 ft 466 kts 208°
2026-04-25 18:39 41.82051 3.86472 35109 ft 466 kts 208°
2026-04-25 18:39 41.76244 3.82568 35107 ft 466 kts 209°
2026-04-25 18:40 41.70467 3.78690 35114 ft 466 kts 208°
2026-04-25 18:40 41.64656 3.74801 35113 ft 467 kts 208°
2026-04-25 18:41 41.58838 3.70912 35113 ft 467 kts 208°
2026-04-25 18:41 41.53051 3.67052 35123 ft 467 kts 208°
2026-04-25 18:42 41.48214 3.63832 35116 ft 467 kts 208°
2026-04-25 18:43 41.35736 3.55551 35123 ft 467 kts 208°
2026-04-25 18:43 41.29908 3.51695 35125 ft 467 kts 208°
2026-04-25 18:44 41.24086 3.47851 35119 ft 466 kts 208°
2026-04-25 18:44 41.18254 3.44179 35094 ft 467 kts 199°
2026-04-25 18:45 41.11880 3.42403 35113 ft 468 kts 193°
2026-04-25 18:45 41.05497 3.40710 35132 ft 467 kts 192°
2026-04-25 18:46 40.99174 3.39043 35125 ft 465 kts 192°
2026-04-25 18:46 40.92812 3.37370 35126 ft 465 kts 192°
2026-04-25 18:47 40.86459 3.35701 35136 ft 465 kts 192°
2026-04-25 18:47 40.80097 3.34034 35125 ft 465 kts 192°
2026-04-25 18:48 40.73808 3.32388 35129 ft 460 kts 192°
2026-04-25 18:48 40.67519 3.30747 35132 ft 460 kts 192°
2026-04-25 18:49 40.61277 3.29120 35124 ft 460 kts 192°